Regional Weather Roundup
Issued by NWS New Orleans/Baton Rouge, LA

Home | Current Version | Previous Version | Graphics & Text | Print | Product List | Glossary On
Versions: 1 2 3 4 5 6 7 8 9 10 11 12 13 14 15 16 17 18 19 20 21 22 23 24 25 26 27 28 29 30 31 32 33 34 35 36 37 38 39 40 41 42 43 44 45 46 47 48 49 50
342
ASUS44 KLIX 251105
RWRLIX
NEW ORLEANS REGIONAL WEATHER ROUNDUP
NATIONAL WEATHER SERVICE NEW ORLEANS LA
500 AM CST SUN JAN 25 2015

NOTE: "FAIR" INDICATES FEW OR NO CLOUDS BELOW 12,000 FEET WITH NO
      SIGNIFICANT WEATHER AND/OR OBSTRUCTIONS TO VISIBILITY.
      SKY/WX - SKY CONDITION AND SIGNIFICANT WEATHER.
      TMP - AIR TEMPERATURE.     DP    - DEWPOINT TEMPERATURE.
      RH  - RELATIVE HUMIDITY.   PRES  - PRESSURE.
      HI  - HEAT INDEX.          WCI   - WIND CHILL INDEX.

*  THESE STATIONS ARE NOT NWS OR FAA STATIONS AND ARE NOT UNDER
   NWS QUALITY CONTROL.

LAZ038-040-048-061>063-065>067-069-251200-
SOUTHEAST LOUISIANA

CITY           SKY/WX    TMP DP  RH WIND       PRES   REMARKS
N.O. AUDUBON   NOT AVBL
N.O. INTL ARPT PTCLDY    42  39  89 S8        30.05F
N.O. LAKEFRONT CLEAR     46  41  82 S7        30.05F
N.O. DOWNTOWN*   N/A     45  39  81 S7        30.06S
SLIDELL        MOCLDY    35  34  96 S3        30.04F FOG
BATON ROUGE    CLEAR     41  39  93 W3        30.03F
BOOTHVILLE     CLEAR     46  44  93 W3        30.08F
BELLE CHASSE   CLEAR     36  32  85 CALM      30.05F FOG
BOGALUSA*        N/A     35  32  90 CALM      30.04F
GALLIANO*      SUNNY     39  39  99 MISG      30.07F FOG
NEW ROADS*     FOG       40  40  97 CALM      30.03F VSB 1
GONZALES*        N/A     37  37 100 CALM      30.04S
HAMMOND*       CLEAR     36  34  93 CALM      30.05S
HOUMA*         SNOW      40  40 100 CALM      30.07R VSB 1/4
PORT FOURCHON* PTSUNNY   52  48  87 SW3       30.10F

$$

MSZ070-080>082-251200-
SOUTHERN MISSISSIPPI

CITY           SKY/WX    TMP DP  RH WIND       PRES   REMARKS
MCCOMB         CLEAR     34  32  92 S3        30.01F
GULFPORT       CLEAR     38  36  92 CALM      30.04F
BILOXI         CLEAR     45  42  89 VRB3      30.04F
PASCAGOULA     CLEAR     36  34  92 CALM      30.05F FOG

$$

COASTAL OBSERVATIONS
LAKE AND NEARSHORE STATIONS

STATION/POSITION TIME  TEMP    WIND        PRES    WAVE
                       AIR SEA DIR/SP/G            HT/PER
                 (UTC) (F)     (DEG/KT/KT) (MB)    (FT/S)
PASCAGOULA       1020   47     280/  6/  8 1017.2
WAVELAND YACHT   1020   45     280/  4/  5 1016.6
GRAND ISLE       1020   52 54  280/  8/ 10 1018.8
SOUTHWEST PASS   1020   53 45  300/ 10/ 13 1019.0
NEW CANAL        1020   46 51  210/  5/  6 1017.9
SHELL BEACH      1020   45 52  220/  6/  7 1018.1

OFFSHORE STATIONS

STATION/POSITION TIME  TEMP    WIND        PRES    WAVE
                       AIR SEA DIR/SP/G            HT/PER
                 (UTC) (F)     (DEG/KT/KT) (MB)    (FT/S)
64 S DAUPHIN ISL 1041   56 70  280/ 16/ 21 1018.6    5/ 5

$$




USA.gov is the U.S. government's official web portal to all federal, state and local government web resources and services.